Wind_Speed
4 5 5 5 6 6 7 7 7 8 8 9 9 9 9 10 10 10 11 11 11 12 12 12 11 11 12 11 11 12 12 12 12 12 13 13 14 14 14 14 14 14 14
4 4 4 5 6 6 6 6 7 7 8 8 8 8 9 9 9 10 10 10 10 11 11 11 12 11 11 11 11 11 13 13 13 13 13 13 13 14 15 15 15 15 15
4 4 4 4 5 5 6 6 6 6 7 7 8 8 8 8 8 8 8 8 9 10 10 11 11 11 11 11 11 11 12 13 13 13 13 13 13 13 14 14 15 16 16
5 4 4 4 4 5 5 5 5 5 6 6 6 7 7 7 7 7 8 8 8 9 10 9 10 10 10 10 11 11 11 12 12 13 13 14 14 14 15 15 15 16 17
5 4 4 4 4 4 5 5 5 5 6 5 5 5 6 6 6 6 7 8 8 8 8 9 9 9 10 10 10 10 11 11 12 12 13 14 15 15 15 15 16 16 17
4 4 4 4 4 5 5 5 5 5 6 6 5 5 5 5 5 6 6 7 7 8 8 9 9 9 10 10 11 11 11 11 12 12 12 13 14 15 15 15 16 17 17
4 4 3 3 4 4 4 5 5 5 6 5 5 5 5 5 5 5 6 6 7 7 7 8 8 8 9 9 10 11 12 12 12 12 13 13 14 14 15 16 16 17 17
4 5 4 3 4 4 4 5 5 6 6 5 5 5 5 5 5 6 6 6 6 6 6 7 7 8 9 9 9 10 10 10 10 11 11 12 13 14 15 17 17 17 18
5 5 4 4 4 4 4 4 4 5 5 5 4 4 4 5 5 7 6 6 6 6 6 6 7 8 8 8 9 10 10 10 11 11 12 13 14 15 15 16 17 18 18
5 5 5 4 3 3 4 4 5 5 5 5 6 6 6 6 5 5 5 5 5 5 6 6 7 8 8 8 9 10 10 11 11 12 13 14 15 15 16 17 17 18 19
6 5 5 4 4 4 5 5 5 5 5 6 6 7 7 7 6 5 4 5 5 5 6 6 7 7 7 7 8 9 10 11 12 13 14 14 15 16 16 17 17 18 19
6 6 5 5 4 4 5 5 5 5 6 6 7 7 7 7 7 6 6 6 6 7 8 8 8 8 8 9 9 10 11 12 13 14 15 16 16 16 17 17 17 17 18
6 6 6 5 5 6 6 6 6 6 6 7 7 7 7 7 7 7 8 8 8 9 9 9 9 10 10 10 11 11 12 13 14 14 15 16 17 17 17 18 17 18 19
6 6 6 6 7 7 7 7 7 7 7 7 7 7 7 7 8 8 8 8 9 9 9 9 10 10 11 11 12 13 13 14 14 15 16 17 17 18 18 19 19 19 20
6 6 6 7 7 7 7 7 7 8 8 8 7 7 7 8 9 9 9 9 9 10 10 11 11 12 12 13 13 14 14 15 16 17 17 18 19 19 19 20 20 20 21
7 7 7 7 7 8 7 7 7 8 8 8 8 8 8 9 9 9 10 10 10 11 12 12 12 13 14 14 15 15 16 16 17 18 19 19 20 20 21 22 22 23 23
7 7 7 7 7 7 7 7 8 8 8 8 8 9 9 9 10 10 11 11 12 12 13 14 14 14 15 16 16 17 17 18 19 20 20 21 22 22 23 24 24 24 25
7 7 7 8 7 7 8 8 8 8 9 9 9 10 10 11 11 11 12 12 13 14 14 15 15 16 16 16 17 18 18 19 20 21 22 22 23 23 24 25 25 25 26
8 8 8 8 8 8 9 9 9 10 10 11 11 12 12 12 13 13 13 14 14 15 15 16 16 16 17 17 18 19 19 20 21 21 22 23 23 24 24 25 26 27 27
9 9 9 9 9 10 10 10 11 11 12 12 13 13 13 13 14 14 14 15 15 15 16 16 16 17 17 18 19 19 20 21 22 22 23 23 24 25 26 27 27 28 28
10 10 10 10 11 11 11 12 13 13 14 14 14 13 13 14 14 15 15 15 15 16 16 17 17 18 19 19 20 21 21 22 22 23 24 25 26 27 27 28 28 29 30
12 11 11 12 12 12 13 13 14 14 14 14 15 15 15 15 15 15 16 16 16 17 18 18 19 19 21 21 21 22 22 23 24 25 26 27 28 28 28 29 30 30 31
13 13 13 14 14 14 14 15 15 15 15 15 15 16 16 16 16 16 17 17 18 19 20 20 20 21 22 22 23 23 24 24 25 27 27 28 29 29 30 30 31 32 33
15 15 15 15 15 16 16 16 16 16 16 16 17 17 17 17 17 17 18 19 20 20 20 21 21 22 23 23 24 25 25 26 27 28 29 30 30 31 31 32 32 32 33
16 16 16 16 16 17 17 17 17 17 16 16 17 17 18 18 18 19 20 20 20 20 20 21 22 22 24 24 25 26 27 27 28 29 30 31 31 31 32 32 32 33 34
17 17 17 17 17 17 17 18 18 17 17 17 18 19 19 19 19 20 20 21 21 21 21 22 22 23 24 25 26 27 28 28 29 30 31 31 32 32 32 32 33 33 34
Wind_Direction
284 281 275 274 273 278 280 277 273 270 267 265 268 271 269 267 266 267 265 265 262 263 265 262 263 264 264 267 267 266 264 265 267 269 271 271 270 270 267 270 272 271 269
287 286 282 277 276 277 279 276 272 274 273 271 272 274 275 274 275 272 273 267 264 266 267 265 264 268 267 267 268 269 268 267 268 270 270 271 273 271 268 270 272 274 274
289 289 286 283 282 283 287 290 282 286 289 285 282 283 279 278 279 276 276 268 266 266 268 265 264 266 269 270 269 270 272 270 270 270 272 273 275 273 271 272 274 275 276
295 295 297 294 286 295 300 296 289 291 290 288 288 282 276 275 273 272 275 276 269 267 267 266 269 267 269 272 274 275 276 275 273 272 273 272 273 273 273 272 275 277 277
298 294 298 300 293 296 304 308 294 292 297 291 286 286 282 278 277 278 280 277 272 272 271 271 273 272 270 276 279 279 279 279 278 277 276 274 273 274 275 274 276 276 276
297 298 297 301 301 298 302 311 312 311 308 304 293 294 293 284 280 281 280 278 276 277 276 278 277 277 275 278 281 282 282 282 280 279 278 277 276 277 279 280 279 277 276
294 291 301 304 304 302 301 309 319 317 315 308 299 298 297 297 292 290 284 281 283 283 284 285 285 284 283 282 284 283 283 281 279 278 278 280 281 283 284 283 283 280 279
292 288 294 294 299 297 297 303 310 315 322 311 301 298 295 298 295 297 295 286 286 286 288 288 287 289 288 288 289 289 290 286 282 286 286 288 288 289 287 285 285 283 279
287 285 283 282 287 291 298 303 307 310 317 318 304 302 301 303 299 300 298 296 289 286 290 295 295 294 291 290 291 294 295 293 291 291 290 291 291 292 291 291 290 285 281
282 284 282 278 280 285 295 304 310 312 315 316 315 310 304 301 297 300 302 304 300 293 289 288 294 294 295 294 291 292 293 294 294 293 293 293 295 296 296 295 293 287 282
273 278 275 274 282 287 291 298 308 318 322 323 324 324 319 314 309 312 309 312 310 304 298 294 290 294 299 302 301 299 300 302 302 299 297 299 298 296 296 297 295 289 284
274 272 267 268 276 290 296 300 307 316 317 319 322 320 317 319 319 317 315 316 314 315 314 310 305 305 309 312 311 310 309 307 307 305 300 301 301 299 298 299 297 294 289
274 273 268 272 278 286 295 301 307 312 316 318 319 318 316 315 313 312 311 313 312 314 315 315 315 313 312 312 311 311 311 310 309 308 306 304 303 302 301 300 299 296 291
274 274 274 276 278 282 288 294 298 304 309 311 313 313 314 315 313 311 311 312 313 316 318 316 314 310 308 307 307 309 310 310 309 308 307 304 303 302 301 300 299 297 293
281 280 279 279 279 285 287 291 296 299 304 306 307 308 308 308 308 309 309 309 309 310 311 309 308 308 307 306 306 308 307 306 306 306 307 306 305 305 302 302 299 297 296
290 287 285 282 280 285 286 289 296 300 302 302 302 302 304 306 306 307 307 307 306 305 303 303 304 305 306 306 304 302 302 303 303 304 304 305 306 306 304 301 300 297 297
290 289 289 285 281 284 287 291 293 300 303 302 303 304 306 307 306 306 305 305 306 306 305 305 304 304 305 305 305 304 303 303 304 304 304 304 304 305 305 303 299 298 297
287 287 290 285 283 286 290 291 293 298 301 302 301 302 304 304 304 306 306 306 305 305 304 305 305 304 304 304 306 306 305 303 303 303 303 303 303 303 304 304 303 301 299
285 284 285 283 283 284 285 290 292 298 297 296 297 298 301 302 303 303 305 306 306 305 303 304 305 305 305 305 306 306 306 305 305 305 305 305 305 305 305 305 305 304 302
287 283 279 282 282 281 282 287 291 294 296 296 294 295 297 298 300 301 304 305 305 306 306 304 304 305 305 306 306 306 305 306 307 307 308 307 306 307 306 306 305 304 303
285 286 281 283 285 282 283 285 287 290 292 293 294 294 295 298 299 299 302 304 304 305 306 306 306 305 305 304 306 306 305 306 306 307 308 308 308 307 305 305 305 304 304
282 285 283 284 285 283 283 285 288 291 291 292 293 293 295 297 300 300 299 300 303 304 305 305 304 304 304 304 305 306 306 306 306 306 307 308 308 307 305 304 304 304 303
280 283 283 282 281 283 285 287 289 290 289 291 291 292 292 294 297 300 301 301 302 303 303 303 303 304 305 304 305 305 306 306 307 308 308 308 308 307 307 306 306 305 303
279 282 283 283 282 282 284 286 289 289 288 288 289 289 289 291 295 298 300 301 301 301 302 303 304 305 305 306 307 306 305 306 307 308 308 308 307 308 308 308 308 307 306
278 282 283 283 282 282 283 285 288 287 288 289 290 290 289 291 292 294 297 300 301 302 304 304 305 306 307 307 307 308 307 307 308 308 309 308 308 308 308 308 308 308 308
278 281 283 282 281 282 283 285 285 285 286 289 290 290 290 291 292 294 297 299 301 302 305 307 307 308 308 308 307 308 308 308 309 310 310 309 309 308 308 308 308 308 308
Height
5862 5862 5862 5862 5862 5862 5862 5862 5862 5862 5862 5862 5862 5862 5862 5862 5863 5863 5863 5864 5864 5865 5866 5866 5867 5868 5868 5869 5869 5870 5870 5871 5871 5871 5871 5872 5872 5873 5874 5874 5875 5875 5875
5861 5861 5861 5861 5861 5861 5861 5861 5861 5861 5860 5860 5860 5860 5860 5860 5861 5861 5861 5862 5862 5863 5863 5864 5865 5866 5866 5866 5867 5867 5868 5868 5868 5868 5869 5869 5870 5870 5871 5871 5871 5872 5872
5861 5860 5860 5860 5860 5860 5860 5860 5859 5859 5859 5859 5859 5859 5859 5859 5859 5859 5859 5860 5860 5861 5861 5862 5863 5863 5864 5864 5864 5865 5865 5865 5865 5865 5866 5866 5867 5867 5867 5868 5868 5868 5868
5860 5860 5860 5859 5859 5859 5859 5859 5858 5858 5858 5857 5857 5857 5857 5857 5857 5858 5858 5858 5859 5859 5860 5860 5861 5861 5861 5862 5862 5862 5862 5862 5863 5863 5863 5863 5864 5864 5864 5864 5864 5865 5864
5859 5859 5859 5859 5859 5858 5858 5858 5858 5857 5857 5856 5856 5856 5856 5856 5856 5856 5856 5857 5857 5857 5858 5858 5858 5859 5859 5859 5860 5860 5860 5860 5860 5860 5860 5860 5860 5860 5860 5860 5860 5860 5860
5858 5859 5858 5858 5858 5858 5858 5857 5857 5857 5856 5855 5855 5855 5855 5855 5855 5855 5855 5855 5855 5856 5856 5856 5856 5857 5857 5857 5857 5857 5857 5857 5857 5857 5857 5857 5857 5857 5857 5857 5856 5856 5856
5858 5858 5858 5858 5858 5858 5857 5857 5857 5856 5856 5855 5854 5854 5854 5854 5854 5854 5854 5854 5854 5854 5854 5854 5854 5854 5855 5855 5855 5855 5855 5854 5854 5854 5854 5854 5854 5854 5853 5853 5852 5852 5852
5857 5857 5857 5857 5857 5857 5857 5856 5856 5856 5855 5854 5854 5854 5854 5854 5853 5853 5853 5853 5852 5852 5852 5853 5852 5852 5852 5852 5852 5852 5852 5852 5852 5852 5851 5851 5851 5850 5849 5848 5848 5847 5847
5856 5856 5856 5856 5856 5856 5856 5856 5855 5855 5855 5854 5853 5854 5853 5853 5852 5852 5852 5851 5851 5851 5851 5851 5851 5851 5850 5850 5850 5850 5850 5849 5849 5849 5849 5848 5848 5847 5846 5844 5843 5842 5841
5855 5855 5855 5855 5855 5855 5855 5855 5854 5854 5854 5853 5852 5852 5852 5852 5851 5851 5851 5850 5850 5850 5850 5850 5849 5849 5849 5848 5848 5848 5848 5847 5846 5846 5846 5845 5844 5843 5842 5840 5839 5837 5836
5854 5854 5854 5854 5854 5854 5854 5854 5854 5853 5853 5852 5852 5851 5851 5850 5850 5850 5850 5850 5849 5849 5848 5848 5848 5848 5847 5846 5846 5846 5845 5844 5844 5843 5842 5842 5841 5839 5838 5837 5835 5833 5831
5853 5853 5853 5853 5853 5853 5853 5853 5853 5852 5852 5852 5851 5850 5850 5849 5849 5849 5848 5848 5848 5848 5847 5846 5846 5846 5845 5844 5844 5843 5843 5842 5841 5840 5839 5838 5837 5836 5834 5832 5830 5829 5827
5851 5852 5852 5852 5852 5852 5852 5852 5852 5852 5851 5851 5850 5849 5849 5848 5848 5848 5848 5847 5847 5846 5845 5845 5844 5844 5843 5842 5842 5841 5840 5839 5838 5837 5836 5834 5833 5832 5830 5828 5827 5825 5824
5850 5850 5850 5850 5851 5851 5851 5851 5851 5850 5850 5849 5849 5848 5848 5847 5847 5847 5846 5846 5845 5844 5844 5843 5842 5842 5841 5840 5839 5838 5837 5836 5835 5834 5832 5831 5829 5828 5826 5824 5823 5821 5819
5848 5848 5849 5849 5849 5849 5849 5849 5849 5849 5848 5848 5847 5847 5846 5846 5846 5845 5844 5844 5844 5843 5842 5841 5840 5839 5838 5837 5836 5835 5834 5833 5831 5830 5829 5827 5825 5823 5822 5820 5818 5816 5815
5847 5847 5847 5847 5847 5848 5848 5848 5847 5847 5847 5846 5846 5845 5845 5844 5844 5843 5842 5842 5841 5841 5840 5838 5837 5836 5835 5834 5833 5832 5831 5829 5828 5826 5824 5823 5821 5819 5817 5815 5813 5811 5809
5845 5845 5845 5846 5846 5846 5846 5846 5846 5845 5845 5844 5844 5843 5843 5842 5842 5841 5840 5839 5838 5837 5836 5835 5834 5833 5832 5830 5829 5828 5826 5825 5823 5822 5820 5818 5816 5814 5812 5810 5807 5805 5803
5843 5843 5844 5844 5844 5844 5844 5844 5844 5844 5843 5843 5842 5841 5841 5840 5839 5838 5837 5836 5835 5834 5833 5832 5830 5829 5828 5826 5825 5823 5822 5820 5819 5817 5815 5813 5811 5809 5806 5804 5801 5799 5797
5841 5842 5842 5842 5842 5842 5842 5842 5842 5842 5841 5840 5840 5839 5838 5837 5836 5835 5834 5833 5832 5831 5829 5828 5827 5825 5824 5822 5821 5819 5817 5816 5814 5812 5810 5807 5805 5803 5800 5798 5795 5793 5790
5839 5839 5839 5840 5840 5840 5840 5840 5839 5839 5838 5837 5837 5836 5835 5834 5833 5832 5830 5829 5828 5827 5825 5824 5823 5821 5820 5818 5816 5814 5813 5811 5808 5806 5804 5802 5799 5796 5794 5791 5788 5785 5783
5837 5837 5837 5837 5837 5837 5837 5836 5836 5835 5835 5834 5833 5832 5831 5830 5829 5828 5827 5825 5824 5823 5822 5820 5818 5817 5815 5813 5811 5809 5808 5805 5803 5801 5798 5796 5793 5790 5787 5784 5781 5778 5775
5834 5834 5834 5834 5834 5834 5833 5833 5832 5832 5831 5830 5829 5828 5828 5826 5825 5824 5823 5821 5820 5819 5817 5816 5814 5812 5810 5808 5806 5804 5802 5800 5797 5795 5792 5789 5786 5782 5779 5776 5773 5769 5766
5830 5830 5830 5830 5830 5830 5829 5829 5828 5828 5827 5826 5825 5824 5823 5822 5821 5820 5819 5817 5816 5814 5812 5811 5809 5807 5805 5803 5801 5798 5796 5793 5790 5788 5785 5781 5778 5775 5771 5767 5764 5760 5757
5826 5826 5826 5826 5825 5825 5825 5825 5824 5823 5822 5822 5821 5820 5819 5818 5817 5816 5814 5812 5811 5809 5807 5805 5803 5801 5798 5796 5794 5792 5789 5786 5783 5780 5777 5773 5770 5766 5762 5758 5755 5751 5747
5822 5822 5822 5821 5821 5821 5820 5820 5819 5818 5818 5817 5816 5815 5814 5813 5812 5810 5809 5807 5806 5804 5802 5799 5797 5795 5792 5790 5787 5785 5782 5779 5776 5773 5769 5765 5761 5757 5754 5750 5746 5742 5738
5817 5817 5817 5817 5816 5816 5815 5815 5814 5813 5813 5812 5811 5810 5809 5808 5806 5805 5803 5802 5800 5798 5796 5794 5791 5789 5786 5783 5781 5778 5775 5772 5768 5765 5761 5757 5753 5749 5746 5742 5737 5733 5729